Probability
55 55 48 45 45 39 35 39 32 26 29 26 26 29 29 29 29 26 19 26 16 13 13 16 10 6 6 6 6 6 3 3 3 3 3 3 3 3 3 0 0 0 0
45 52 52 48 45 42 42 42 39 32 29 32 29 29 29 26 23 26 23 23 10 13 13 10 10 6 6 6 6 6 6 3 3 3 3 3 3 3 0 0 0 3 0
45 45 42 39 45 39 42 42 35 35 35 32 29 26 26 26 29 29 23 19 13 10 10 10 10 6 6 6 6 6 6 6 3 3 3 3 3 6 0 0 0 3 3
48 48 35 39 39 42 39 39 39 35 42 35 29 32 32 29 29 26 16 16 10 6 6 10 10 10 10 6 6 6 6 6 6 6 3 3 3 6 6 6 3 3 3
48 39 39 42 39 45 45 42 35 35 42 39 42 39 39 35 39 32 19 13 6 6 6 6 10 10 10 10 6 3 3 6 6 6 6 3 3 3 3 3 3 3 3
42 48 35 39 35 35 42 42 32 32 35 35 39 42 39 42 35 23 16 16 6 3 3 3 3 6 6 3 3 3 3 3 3 3 3 3 3 0 3 3 3 3 3
32 39 39 45 48 48 45 42 39 39 39 39 39 35 32 32 26 19 6 13 13 10 3 3 6 6 3 6 3 3 3 3 3 3 3 3 3 0 0 3 3 3 3
29 35 35 39 39 35 45 42 39 42 45 39 42 39 26 29 16 10 0 3 10 10 6 6 6 6 6 3 6 6 3 3 3 3 3 3 3 3 0 0 3 3 3
26 29 32 35 42 35 35 39 32 35 35 35 35 35 32 29 16 6 3 3 0 3 6 6 6 6 6 3 3 3 3 3 3 3 3 3 3 0 3 3 3 3 3
29 29 29 35 35 35 32 29 32 35 35 35 39 35 32 32 13 6 0 3 0 0 6 6 6 3 3 3 0 3 3 3 3 3 0 0 0 0 0 0 0 0 0
26 29 23 26 29 32 29 29 32 32 32 32 32 29 29 29 19 3 0 3 0 0 3 6 6 3 0 0 0 0 0 3 3 3 3 0 0 0 0 0 0 0 0
16 23 19 23 26 26 23 23 26 26 26 26 29 26 19 16 10 3 0 3 0 3 3 3 3 3 3 0 0 0 0 0 3 3 0 0 0 0 0 0 0 0 0
23 16 13 16 19 19 19 23 23 26 29 29 29 26 19 16 10 3 3 0 0 0 3 6 3 3 0 0 0 0 0 0 0 0 0 0 0 0 0 0 0 0 0
19 19 16 16 19 13 13 23 26 26 26 29 29 26 19 16 13 3 3 0 0 0 0 0 0 0 0 0 0 0 0 0 0 0 0 0 0 0 0 0 0 0 0
19 19 19 19 19 16 16 16 19 23 23 26 26 26 23 16 16 13 3 3 3 3 0 0 0 0 0 0 0 0 0 0 0 0 0 0 0 0 0 0 0 0 0
26 23 23 23 19 16 16 10 6 13 13 10 19 19 19 10 6 6 3 3 0 0 0 0 0 0 0 0 0 0 0 0 0 0 0 0 0 0 0 0 0 0 0
23 23 23 23 19 19 16 13 10 6 0 0 0 3 6 6 3 0 0 0 0 0 0 0 3 3 3 0 0 0 0 0 0 0 0 0 0 0 0 0 0 0 0
19 19 19 16 13 16 16 10 10 10 10 10 0 0 0 0 0 0 0 0 0 0 0 0 3 3 0 0 0 0 0 3 3 3 3 0 0 0 0 0 0 0 0
19 19 19 16 16 13 16 13 10 10 10 6 0 0 0 0 0 0 0 0 0 0 0 0 0 0 0 0 0 0 0 0 0 3 3 3 3 0 0 0 0 0 0
16 19 19 19 16 16 13 16 16 10 10 6 3 0 0 0 0 0 0 0 0 0 0 0 0 0 0 0 0 0 0 0 0 0 0 3 3 3 3 0 0 0 0
16 16 13 16 19 19 16 16 13 13 13 6 6 3 0 0 0 0 0 0 0 0 0 0 0 0 0 0 0 0 0 0 0 0 0 0 0 3 0 0 0 0 0
16 19 16 19 16 13 10 13 13 13 13 10 6 3 0 0 3 3 0 0 0 0 0 0 0 0 0 0 0 0 0 0 0 0 0 0 0 0 0 0 0 0 0
16 13 13 13 3 3 10 10 10 6 6 6 6 3 3 3 3 3 3 3 3 3 0 0 0 0 0 0 0 0 0 0 0 0 0 3 0 0 0 0 0 0 0
13 13 13 6 3 3 6 6 3 6 6 6 6 3 3 3 3 3 3 3 3 3 3 3 0 0 0 0 0 0 0 0 0 0 0 0 0 0 0 0 0 0 0
10 10 6 6 3 3 0 0 3 0 0 3 3 3 3 3 3 3 3 3 0 0 0 0 0 0 0 0 0 0 0 0 0 0 0 0 0 0 0 0 0 0 0
3 3 0 3 3 0 0 0 0 0 0 0 0 3 3 3 3 3 0 0 0 0 0 0 0 0 0 0 0 0 0 0 0 0 0 0 0 0 0 0 0 0 0
Height
5898 5897 5897 5896 5895 5894 5893 5892 5892 5891 5890 5889 5888 5887 5886 5885 5884 5883 5882 5881 5880 5879 5877 5876 5875 5873 5871 5870 5868 5866 5864 5863 5861 5859 5857 5855 5853 5852 5850 5847 5845 5843 5842
5896 5895 5895 5894 5894 5893 5892 5891 5890 5890 5889 5888 5887 5886 5885 5884 5883 5882 5881 5879 5878 5877 5876 5874 5873 5871 5869 5867 5865 5863 5861 5859 5857 5855 5853 5851 5849 5848 5846 5844 5841 5839 5837
5894 5893 5892 5892 5891 5891 5890 5889 5889 5888 5887 5886 5886 5885 5884 5883 5882 5880 5879 5878 5877 5875 5874 5872 5870 5868 5866 5864 5862 5860 5858 5856 5854 5852 5849 5847 5845 5843 5841 5839 5837 5835 5833
5891 5890 5889 5889 5888 5888 5888 5887 5887 5886 5885 5884 5884 5883 5882 5881 5880 5878 5877 5876 5874 5873 5871 5869 5867 5865 5863 5861 5859 5857 5854 5852 5850 5848 5845 5843 5841 5839 5836 5834 5832 5830 5828
5888 5887 5886 5885 5885 5885 5884 5884 5884 5883 5883 5882 5881 5880 5879 5878 5877 5876 5874 5873 5872 5870 5868 5866 5864 5862 5860 5858 5855 5853 5851 5848 5846 5843 5841 5839 5836 5834 5832 5829 5827 5825 5822
5884 5883 5882 5882 5882 5881 5881 5881 5880 5880 5879 5879 5878 5877 5876 5875 5874 5872 5871 5870 5868 5867 5865 5863 5861 5858 5856 5854 5851 5849 5847 5844 5841 5839 5836 5833 5831 5829 5826 5824 5822 5819 5817
5880 5879 5879 5878 5878 5877 5877 5877 5876 5876 5875 5875 5874 5873 5872 5871 5870 5869 5867 5866 5864 5862 5860 5858 5856 5854 5852 5849 5847 5844 5842 5839 5837 5834 5831 5828 5826 5823 5821 5818 5816 5813 5811
5876 5875 5875 5874 5873 5872 5872 5872 5871 5871 5870 5870 5869 5868 5868 5867 5865 5864 5862 5861 5859 5858 5855 5853 5851 5849 5846 5844 5842 5839 5837 5834 5831 5828 5825 5822 5820 5817 5814 5812 5810 5807 5805
5872 5871 5870 5870 5869 5868 5868 5867 5866 5866 5865 5865 5864 5863 5862 5861 5860 5858 5857 5855 5854 5852 5850 5848 5846 5843 5841 5838 5836 5833 5831 5828 5825 5822 5819 5816 5813 5810 5808 5806 5803 5801 5799
5867 5866 5865 5865 5864 5863 5863 5862 5861 5861 5860 5859 5858 5858 5857 5855 5854 5852 5851 5849 5848 5846 5844 5842 5840 5838 5835 5832 5830 5827 5824 5821 5818 5815 5812 5810 5807 5804 5801 5799 5796 5794 5791
5862 5861 5860 5860 5859 5858 5857 5856 5855 5854 5853 5853 5852 5851 5850 5849 5848 5846 5844 5843 5841 5839 5837 5835 5833 5831 5828 5826 5823 5820 5817 5814 5811 5808 5805 5802 5799 5796 5794 5791 5788 5786 5784
5855 5855 5855 5854 5853 5853 5852 5851 5850 5849 5848 5847 5846 5844 5844 5842 5841 5839 5837 5835 5834 5832 5830 5828 5826 5824 5821 5818 5816 5813 5810 5807 5804 5801 5798 5795 5792 5788 5785 5783 5780 5778 5775
5849 5849 5848 5848 5847 5847 5846 5845 5844 5843 5842 5841 5840 5838 5837 5836 5834 5832 5830 5828 5826 5824 5822 5820 5818 5815 5813 5810 5808 5805 5802 5799 5796 5793 5790 5787 5783 5780 5776 5774 5772 5769 5767
5842 5842 5842 5841 5841 5840 5839 5838 5838 5836 5835 5834 5833 5831 5830 5828 5826 5824 5822 5820 5818 5816 5814 5811 5809 5807 5804 5802 5799 5796 5793 5790 5787 5785 5781 5778 5775 5771 5768 5765 5763 5760 5758
5835 5835 5835 5834 5834 5833 5832 5831 5830 5829 5828 5827 5825 5824 5822 5821 5819 5816 5813 5811 5809 5807 5805 5802 5800 5798 5795 5793 5789 5787 5784 5781 5778 5775 5772 5769 5766 5763 5759 5757 5754 5751 5749
5828 5828 5828 5827 5827 5826 5825 5824 5823 5822 5820 5819 5817 5816 5814 5812 5810 5807 5805 5802 5800 5798 5796 5793 5791 5788 5786 5783 5780 5777 5774 5771 5768 5765 5762 5759 5756 5753 5750 5747 5745 5742 5740
5820 5820 5820 5820 5819 5818 5817 5816 5815 5814 5812 5810 5808 5806 5805 5803 5800 5798 5795 5793 5791 5788 5786 5784 5781 5778 5775 5772 5769 5767 5764 5761 5758 5755 5752 5749 5746 5743 5740 5738 5735 5733 5730
5812 5812 5812 5812 5811 5810 5809 5808 5807 5805 5804 5801 5799 5797 5795 5793 5791 5788 5786 5784 5781 5778 5776 5774 5771 5768 5765 5762 5759 5756 5753 5751 5748 5745 5742 5739 5736 5734 5731 5728 5725 5723 5721
5804 5804 5804 5803 5802 5801 5800 5799 5798 5796 5795 5793 5790 5788 5786 5784 5781 5779 5776 5774 5771 5769 5766 5763 5761 5758 5755 5752 5749 5746 5743 5740 5738 5735 5732 5729 5726 5723 5720 5718 5715 5713 5710
5795 5795 5795 5794 5793 5792 5791 5790 5788 5787 5785 5783 5781 5779 5777 5774 5772 5769 5767 5764 5762 5759 5756 5753 5750 5747 5745 5742 5739 5736 5733 5730 5727 5724 5721 5719 5716 5713 5710 5707 5704 5702 5700
5786 5786 5786 5785 5784 5783 5782 5780 5779 5777 5776 5774 5772 5770 5768 5765 5763 5760 5757 5754 5751 5748 5745 5743 5740 5738 5735 5732 5729 5726 5723 5720 5717 5714 5711 5709 5706 5702 5699 5696 5694 5691 5689
5776 5776 5776 5775 5774 5773 5772 5771 5769 5768 5766 5765 5763 5760 5758 5756 5753 5750 5747 5744 5741 5738 5735 5732 5730 5727 5724 5721 5719 5716 5713 5710 5707 5704 5701 5698 5695 5693 5689 5686 5684 5681 5679
5766 5766 5767 5766 5764 5763 5762 5761 5759 5758 5756 5754 5752 5750 5748 5746 5743 5741 5738 5735 5732 5728 5725 5722 5720 5717 5714 5711 5708 5705 5703 5700 5697 5694 5691 5688 5685 5682 5680 5676 5674 5671 5668
5757 5757 5757 5756 5755 5754 5753 5751 5750 5748 5746 5744 5742 5741 5739 5736 5733 5731 5728 5725 5722 5719 5715 5712 5709 5707 5704 5700 5697 5695 5692 5689 5686 5683 5680 5677 5675 5672 5669 5667 5664 5661 5658
5748 5748 5748 5747 5746 5744 5743 5742 5740 5738 5736 5734 5733 5731 5729 5726 5724 5721 5718 5715 5712 5709 5706 5702 5699 5696 5693 5690 5687 5684 5681 5678 5675 5673 5670 5667 5664 5662 5659 5656 5654 5651 5649
5739 5739 5738 5737 5736 5735 5734 5733 5731 5729 5727 5726 5724 5722 5720 5717 5714 5712 5709 5706 5702 5699 5696 5692 5689 5685 5682 5679 5676 5673 5670 5668 5665 5662 5659 5656 5654 5651 5649 5646 5644 5642 5639
Wind_Speed
4 4 4 4 4 4 4 4 4 3 3 3 3 4 5 5 5 5 5 5 5 6 6 7 7 8 9 10 10 11 11 12 12 13 14 14 14 14 14 14 15 15 15
6 5 5 5 6 5 5 5 4 4 3 3 4 5 5 5 5 5 5 5 6 7 7 8 9 10 10 11 12 12 13 13 13 14 14 15 15 15 15 16 16 17 17
8 7 7 7 7 7 6 6 5 4 4 5 5 5 6 6 6 6 7 7 8 8 9 9 10 11 12 12 13 14 14 15 15 15 15 16 16 16 17 17 18 18 18
9 9 10 9 9 8 7 7 7 6 6 6 7 7 7 8 8 8 9 9 10 10 11 12 13 13 14 15 15 15 15 16 16 17 17 17 17 18 18 18 18 19 19
11 11 12 11 10 9 9 9 9 9 9 8 9 9 9 9 10 11 11 11 12 12 13 14 15 15 16 16 16 17 17 18 18 19 19 19 18 18 19 19 19 19 20
12 12 12 11 11 11 11 11 11 11 11 11 11 11 11 11 12 12 13 13 13 14 15 16 17 17 17 18 18 18 19 19 20 20 20 20 20 20 20 20 20 20 21
13 13 13 13 14 14 14 14 13 14 14 13 13 13 13 14 14 14 14 14 15 16 17 17 18 19 19 19 19 20 21 21 21 21 22 22 21 21 22 22 21 22 23
14 14 14 14 14 13 14 16 16 16 16 16 16 16 16 16 16 16 16 17 17 18 18 19 20 20 21 21 21 22 22 23 23 23 23 23 23 23 23 23 23 23 24
15 15 15 15 15 15 15 16 16 17 17 17 18 18 18 19 19 19 18 18 19 19 20 21 22 22 22 23 23 23 24 24 24 24 24 23 23 23 24 24 24 24 24
16 16 15 15 15 16 17 17 18 19 20 19 20 20 21 21 21 21 21 21 21 21 22 23 23 24 24 24 23 24 24 24 24 24 23 24 24 25 25 25 25 25 25
16 16 17 17 17 18 18 18 19 20 21 21 21 22 22 23 23 23 23 23 22 23 23 24 24 25 25 25 25 25 25 26 26 25 25 25 26 26 27 27 26 27 27
19 18 18 18 18 19 19 19 20 20 20 21 22 22 23 24 24 25 24 24 24 25 25 26 26 26 27 27 27 27 27 27 27 27 27 27 28 28 28 28 29 28 28
21 21 20 20 21 21 21 21 21 21 21 21 22 22 23 24 25 26 26 26 26 27 27 27 27 27 28 28 28 28 28 28 29 29 29 29 30 29 29 30 30 30 30
23 23 23 22 22 22 21 21 22 22 22 22 23 24 25 26 27 27 28 28 28 28 28 28 28 29 30 30 29 30 30 30 31 30 31 31 31 30 30 30 30 30 30
24 24 24 24 23 23 24 24 24 24 24 25 26 27 27 27 28 29 30 30 30 30 30 29 29 31 32 32 32 32 32 32 32 32 31 32 32 32 32 31 31 30 30
25 24 24 24 25 25 25 25 25 26 26 27 28 28 28 29 29 30 30 31 31 31 31 30 31 32 32 33 33 33 33 33 33 33 32 32 32 32 32 32 31 30 30
26 25 24 25 25 25 25 26 27 28 28 29 30 30 30 30 30 30 31 31 31 31 30 30 31 32 32 32 33 33 33 33 34 34 33 33 33 32 32 31 31 31 31
27 26 26 26 26 26 27 28 28 29 29 30 30 31 31 31 30 31 31 32 32 32 32 31 31 32 32 32 32 33 33 33 34 34 33 33 33 32 32 32 32 32 32
28 28 27 28 28 28 29 30 30 30 30 30 30 30 31 31 31 31 32 32 32 32 32 32 32 32 32 33 34 33 33 33 33 33 33 33 33 33 33 33 33 32 33
28 28 28 29 30 30 30 30 30 30 31 31 30 30 30 30 31 31 31 31 32 33 33 33 32 32 33 33 33 33 32 33 33 33 33 33 33 33 34 33 33 32 32
28 28 29 30 30 30 30 30 30 31 31 31 30 30 30 30 31 31 31 32 33 33 34 33 33 33 32 32 33 32 32 32 32 32 33 34 34 34 34 33 33 32 32
30 30 30 30 30 31 31 30 30 31 30 30 29 30 30 30 31 32 31 31 31 32 32 31 31 31 32 32 33 33 32 32 32 32 33 32 31 32 33 33 32 32 32
30 30 29 29 30 31 30 30 30 30 31 31 30 30 30 31 31 31 31 31 31 31 31 31 32 33 33 34 34 34 33 32 32 32 32 32 32 32 32 32 32 32 31
30 29 29 30 30 30 30 30 31 31 32 32 31 30 30 31 30 31 31 31 31 32 32 32 32 33 33 33 33 33 33 32 32 32 32 32 32 32 32 32 31 30 30
31 31 31 31 31 31 30 31 31 31 31 31 30 30 30 30 30 31 31 31 31 32 32 33 33 33 33 33 33 33 33 33 32 32 32 32 32 32 32 30 30 29 29
32 32 31 31 30 30 30 30 30 31 31 31 30 30 29 29 29 30 31 32 32 33 33 33 34 34 33 33 33 33 33 34 34 33 34 34 33 32 31 30 30 29 29
Wind_Direction
326 332 330 329 329 336 335 334 338 341 347 356 3 3 356 346 339 338 334 322 319 322 323 324 324 322 322 318 316 315 313 310 307 306 304 302 301 300 300 301 300 299 297
298 297 304 308 306 310 317 316 317 324 328 342 348 346 343 340 336 334 333 329 320 319 321 322 321 319 318 316 314 313 310 308 305 304 303 301 300 300 300 300 299 297 295
291 290 291 294 294 294 306 309 301 304 310 316 323 324 323 321 320 318 319 318 315 312 314 318 320 320 317 315 314 313 311 309 308 307 304 304 302 301 301 302 301 298 296
285 286 283 281 283 281 290 298 297 296 300 299 302 305 309 307 306 307 309 310 310 310 311 312 315 317 319 318 316 314 314 313 311 309 306 305 305 302 302 302 301 299 297
293 289 282 282 279 272 276 285 286 288 290 290 291 295 300 305 306 305 305 306 307 307 307 308 310 312 314 314 314 313 312 312 312 309 307 305 303 302 299 299 300 300 298
288 291 282 290 288 280 274 280 280 282 284 286 286 288 294 299 302 302 302 303 302 303 303 304 306 308 309 309 311 312 313 312 311 309 307 303 300 298 297 296 296 297 295
285 286 286 287 287 282 278 278 276 277 279 281 282 284 288 290 294 297 297 298 299 299 301 302 303 304 306 307 308 309 310 310 309 308 306 304 300 297 296 295 294 295 296
288 287 288 285 282 279 277 276 274 273 275 276 278 279 281 286 289 291 292 294 296 297 298 300 301 302 303 304 305 305 306 307 306 304 304 303 302 299 297 296 296 295 296
285 287 289 286 284 280 278 277 276 274 273 273 275 278 281 284 287 288 289 290 292 294 296 298 299 301 302 303 304 305 306 305 304 303 302 301 300 300 299 298 297 297 298
279 282 286 286 285 285 283 280 279 277 274 273 275 277 280 283 285 286 287 288 290 292 293 296 299 301 301 302 303 304 306 306 304 304 303 301 300 300 299 298 297 296 296
276 277 280 284 287 287 287 285 281 279 275 275 276 278 281 284 286 288 288 288 289 291 292 294 297 300 301 301 301 303 304 304 304 302 301 300 300 299 298 297 295 294 295
274 277 278 282 284 285 286 287 286 285 283 281 281 282 283 285 285 288 290 291 290 292 292 293 295 296 298 299 299 299 300 301 301 299 299 299 298 297 296 295 294 292 292
271 274 277 280 281 282 283 283 284 283 284 286 287 287 287 289 288 288 290 290 290 290 291 292 293 294 295 295 296 297 298 298 299 298 297 297 296 295 294 293 292 291 289
270 273 275 278 281 282 282 282 283 284 284 286 287 288 288 289 291 289 290 290 289 289 290 290 291 293 294 295 295 295 296 296 296 296 295 295 295 294 294 293 292 291 291
269 271 273 274 277 280 281 283 285 285 286 286 286 286 287 288 290 292 291 289 289 290 290 290 290 291 293 294 294 294 294 294 294 294 293 293 293 293 293 292 291 290 290
270 271 272 275 277 279 281 282 283 284 286 288 287 287 287 288 289 290 291 291 290 289 289 290 292 292 292 292 292 292 292 293 292 292 292 291 291 291 292 292 291 290 290
270 271 272 275 277 279 280 282 282 283 286 289 289 288 287 287 288 289 290 291 291 290 289 290 291 292 292 292 292 291 291 291 291 290 290 290 291 291 291 291 290 290 290
270 272 274 276 277 279 281 282 283 284 285 288 290 289 288 288 288 288 289 290 290 289 289 289 290 291 291 293 293 292 292 291 291 291 290 289 290 290 290 290 289 289 289
269 271 273 276 278 280 281 282 284 285 286 287 289 289 289 289 289 289 289 289 289 289 290 291 291 290 291 293 294 293 293 292 291 291 291 291 290 290 290 289 288 288 288
268 270 273 276 279 280 281 282 283 284 285 286 287 288 289 290 291 292 292 293 293 292 292 291 290 290 291 292 293 293 293 292 290 290 291 291 291 291 291 289 287 287 288
266 270 273 276 278 280 281 282 282 283 284 286 286 287 288 289 291 292 292 292 293 292 290 289 288 289 291 292 293 293 293 293 291 290 290 291 292 292 291 289 287 287 287
266 269 272 274 276 278 279 281 282 283 283 283 284 286 288 289 291 292 293 293 293 293 291 289 290 291 292 292 293 294 293 293 293 292 292 293 293 293 292 290 289 289 289
266 268 272 275 278 278 279 281 282 282 281 281 281 284 286 288 289 291 293 294 293 294 294 293 292 292 293 294 294 294 294 294 294 293 292 291 292 292 292 290 289 288 288
269 270 273 276 279 279 279 280 282 284 284 283 283 285 288 291 291 292 294 294 295 295 295 295 295 294 295 296 296 294 294 293 293 292 290 290 292 292 292 291 290 289 288
270 272 275 277 278 278 279 281 282 284 284 285 285 288 291 292 293 295 296 296 296 297 297 297 297 297 297 296 295 294 294 293 293 292 290 289 291 292 292 290 289 289 289
269 271 274 277 278 279 281 283 285 286 286 287 289 290 292 294 295 296 298 298 298 298 298 298 297 297 296 295 295 294 294 294 293 293 292 291 292 292 292 291 290 289 290